Location: Wellington
(41.3000°S, 174.7830°E)
Time: 01:06:35
(UTC+13:00)

IRAS Rocket - Pass Details

Date: 24 January 2019
Orbit: 847 x 878 km, 100.0° (Epoch: 17 October)

Event Time Altitude Azimuth Distance (km) Brightness Sun altitude
Rises 23:31:35 0° 167° (SSE) 3,492 8.1 -23.3°
Reaches altitude 10° 23:34:00 10° 168° (SSE) 2,542 7.3 -23.5°
Maximum altitude 23:39:38 77° 252° (WSW) 897 4.3 -24.0°
Enters shadow 23:41:49 39° 330° (NNW) 1,280 4.8 -24.2°
